When you browse on this site, cookies collect data to enhance your experience and personalize the content and advertising you see.
Visit our Privacy Policy to learn more. By continuing to use the site, you agree to this use of cookies and data.
  • In Latvia
  • List of Countries
  • For 7 days
  • Water Temperature
  • Weather Map
  • Weather Widgets
  • user-avatar
    Login

    Hourly Weather Nesebyr

    Today, 16 December, Monday

    Time Temperature Precipitation Wind Pressure Humidity
    00:00 +9°C° 0 mm 1 mps 766 mmHg 63%
    01:00 +9°C° 0 mm 1 mps 766 mmHg 63%
    02:00 +9°C° 0 mm 1 mps 766 mmHg 65%
    03:00 +8°C° 0 mm 2 mps 766 mmHg 66%
    04:00 +7°C° 0 mm 2 mps 766 mmHg 68%
    05:00 +7°C° 0 mm 2 mps 765 mmHg 69%
    06:00 +7°C° 0 mm 2 mps 766 mmHg 71%
    07:00 +7°C° 0 mm 2 mps 766 mmHg 73%
    08:00 +7°C° 0 mm 2 mps 766 mmHg 75%
    09:00 +9°C° 0 mm 2 mps 766 mmHg 71%
    10:00 +12°C° 0 mm 2 mps 766 mmHg 68%
    11:00 +12°C° 0 mm 3 mps 767 mmHg 65%
    12:00 +13°C° 0 mm 3 mps 766 mmHg 65%
    13:00 +14°C° 0 mm 3 mps 766 mmHg 66%
    14:00 +14°C° 0 mm 3 mps 765 mmHg 67%
    15:00 +14°C° 0 mm 2 mps 765 mmHg 73%
    16:00 +13°C° 0 mm 2 mps 765 mmHg 79%
    17:00 +10°C° 0 mm 2 mps 765 mmHg 85%
    18:00 +10°C° 0 mm 2 mps 766 mmHg 86%
    19:00 +10°C° 0 mm 2 mps 766 mmHg 87%
    20:00 +9°C° 0 mm 2 mps 766 mmHg 88%
    21:00 +9°C° 0 mm 2 mps 766 mmHg 89%
    22:00 +9°C° 0 mm 2 mps 766 mmHg 89%
    23:00 +9°C° 0 mm 2 mps 766 mmHg 89%

    Tomorrow, 17 December, Tuesday

    Time Temperature Precipitation Wind Pressure Humidity
    00:00 +9°C° 0 mm 2 mps 766 mmHg 90%
    01:00 +9°C° 0 mm 2 mps 766 mmHg 90%
    02:00 +9°C° 0 mm 2 mps 766 mmHg 91%
    03:00 +8°C° 0 mm 2 mps 765 mmHg 92%
    04:00 +8°C° 0 mm 2 mps 765 mmHg 92%
    05:00 +8°C° 0 mm 2 mps 765 mmHg 93%
    06:00 +8°C° 0 mm 2 mps 765 mmHg 93%
    07:00 +8°C° 0 mm 2 mps 765 mmHg 94%
    08:00 +8°C° 0 mm 2 mps 765 mmHg 94%
    09:00 +9°C° 0 mm 2 mps 766 mmHg 90%
    10:00 +11°C° 0 mm 3 mps 766 mmHg 86%
    11:00 +12°C° 0 mm 3 mps 766 mmHg 82%
    12:00 +13°C° 0 mm 3 mps 765 mmHg 80%
    13:00 +14°C° 0 mm 3 mps 765 mmHg 77%
    14:00 +14°C° 0 mm 3 mps 765 mmHg 75%
    15:00 +13°C° 0 mm 3 mps 765 mmHg 79%
    16:00 +12°C° 0 mm 3 mps 765 mmHg 84%
    17:00 +12°C° 0 mm 2 mps 765 mmHg 88%
    18:00 +12°C° 0 mm 2 mps 765 mmHg 89%
    19:00 +12°C° 0 mm 2 mps 765 mmHg 89%
    20:00 +10°C° 0 mm 2 mps 765 mmHg 90%
    21:00 +10°C° 0 mm 2 mps 766 mmHg 90%
    22:00 +10°C° 0 mm 2 mps 766 mmHg 90%
    23:00 +10°C° 0 mm 2 mps 766 mmHg 90%

    Day after tomorrow, 18 December, Wednesday

    Time Temperature Precipitation Wind Pressure Humidity
    00:00 +9°C° 0 mm 2 mps 766 mmHg 90%
    01:00 +9°C° 0 mm 2 mps 766 mmHg 91%
    02:00 +9°C° 0 mm 2 mps 766 mmHg 91%
    03:00 +9°C° 0 mm 2 mps 766 mmHg 91%
    04:00 +9°C° 0 mm 2 mps 765 mmHg 91%
    05:00 +9°C° 0 mm 2 mps 765 mmHg 92%
    06:00 +9°C° 0 mm 2 mps 766 mmHg 92%
    07:00 +9°C° 0 mm 2 mps 766 mmHg 92%
    08:00 +9°C° 0 mm 2 mps 766 mmHg 92%
    09:00 +10°C° 0 mm 3 mps 766 mmHg 87%
    10:00 +12°C° 0 mm 3 mps 766 mmHg 82%
    11:00 +13°C° 0 mm 4 mps 766 mmHg 77%
    12:00 +14°C° 0 mm 3 mps 766 mmHg 74%
    13:00 +16°C° 0 mm 3 mps 765 mmHg 72%
    14:00 +17°C° 0 mm 3 mps 765 mmHg 70%
    15:00 +16°C° 0 mm 3 mps 765 mmHg 75%
    16:00 +14°C° 0 mm 3 mps 765 mmHg 80%
    17:00 +12°C° 0 mm 3 mps 765 mmHg 85%
    18:00 +12°C° 0 mm 3 mps 765 mmHg 86%
    19:00 +12°C° 0 mm 3 mps 765 mmHg 87%
    20:00 +12°C° 0 mm 2 mps 765 mmHg 88%
    21:00 +11°C° 0 mm 3 mps 766 mmHg 89%
    22:00 +11°C° 0 mm 3 mps 766 mmHg 89%
    23:00 +11°C° 0 mm 3 mps 766 mmHg 90%

    19 December, Thursday

    Time Temperature Precipitation Wind Pressure Humidity
    00:00 +11°C° 0 mm 3 mps 766 mmHg 90%
    01:00 +10°C° 0 mm 3 mps 765 mmHg 90%
    02:00 +10°C° 0 mm 3 mps 765 mmHg 91%
    03:00 +10°C° 0 mm 3 mps 765 mmHg 91%
    04:00 +10°C° 0 mm 3 mps 765 mmHg 91%
    05:00 +10°C° 0 mm 3 mps 765 mmHg 91%
    06:00 +10°C° 0 mm 3 mps 765 mmHg 92%
    07:00 +10°C° 0 mm 3 mps 765 mmHg 92%
    08:00 +10°C° 0 mm 3 mps 765 mmHg 92%
    09:00 +12°C° 0 mm 3 mps 765 mmHg 87%
    10:00 +13°C° 0 mm 4 mps 765 mmHg 83%
    11:00 +15°C° 0 mm 4 mps 765 mmHg 78%
    12:00 +15°C° 0 mm 4 mps 765 mmHg 75%
    13:00 +17°C° 0 mm 4 mps 764 mmHg 72%
    14:00 +17°C° 0 mm 5 mps 763 mmHg 70%
    15:00 +17°C° 0 mm 4 mps 763 mmHg 75%
    16:00 +15°C° 0 mm 4 mps 763 mmHg 79%
    17:00 +13°C° 0 mm 3 mps 763 mmHg 84%
    18:00 +13°C° 0 mm 4 mps 763 mmHg 85%
    19:00 +13°C° 0 mm 4 mps 763 mmHg 85%
    20:00 +13°C° 0 mm 4 mps 763 mmHg 86%
    21:00 +13°C° 0 mm 4 mps 763 mmHg 86%
    22:00 +13°C° 0 mm 4 mps 763 mmHg 86%
    23:00 +13°C° 0 mm 5 mps 763 mmHg 86%

    20 December, Friday

    Time Temperature Precipitation Wind Pressure Humidity
    00:00 +13°C° 0 mm 5 mps 762 mmHg 87%
    01:00 +13°C° 0 mm 5 mps 762 mmHg 87%
    02:00 +13°C° 0 mm 4 mps 761 mmHg 87%
    03:00 +13°C° 0 mm 5 mps 761 mmHg 87%
    04:00 +13°C° 0 mm 5 mps 761 mmHg 87%
    05:00 +13°C° 0 mm 5 mps 761 mmHg 87%
    06:00 +13°C° 0 mm 5 mps 761 mmHg 87%
    07:00 +13°C° 0 mm 5 mps 761 mmHg 86%
    08:00 +13°C° 0 mm 5 mps 761 mmHg 86%
    09:00 +14°C° 0 mm 5 mps 761 mmHg 82%
    10:00 +15°C° 0 mm 5 mps 761 mmHg 78%
    11:00 +16°C° 0 mm 5 mps 761 mmHg 73%
    12:00 +16°C° 0.1 mm 5 mps 761 mmHg 69%
    13:00 +17°C° 0.1 mm 4 mps 760 mmHg 66%
    14:00 +18°C° 0.1 mm 4 mps 759 mmHg 62%
    15:00 +17°C° 0.1 mm 4 mps 760 mmHg 67%
    16:00 +16°C° 0.1 mm 3 mps 760 mmHg 72%
    17:00 +15°C° 0.1 mm 2 mps 760 mmHg 77%
    18:00 +14°C° 0 mm 2 mps 760 mmHg 79%
    19:00 +14°C° 0 mm 2 mps 760 mmHg 81%
    20:00 +12°C° 0 mm 3 mps 760 mmHg 83%
    21:00 +12°C° 0 mm 3 mps 760 mmHg 84%
    22:00 +12°C° 0 mm 3 mps 760 mmHg 86%
    23:00 +12°C° 0 mm 3 mps 760 mmHg 87%

    21 December, Saturday

    Time Temperature Precipitation Wind Pressure Humidity
    00:00 +12°C° 0 mm 3 mps 759 mmHg 86%
    01:00 +12°C° 0 mm 3 mps 759 mmHg 85%
    02:00 +12°C° 0 mm 3 mps 759 mmHg 85%
    03:00 +11°C° 0 mm 3 mps 759 mmHg 86%
    04:00 +12°C° 0 mm 2 mps 758 mmHg 88%
    05:00 +12°C° 0 mm 2 mps 758 mmHg 89%
    06:00 +12°C° 0 mm 2 mps 758 mmHg 89%
    07:00 +11°C° 0 mm 3 mps 758 mmHg 89%
    08:00 +12°C° 0 mm 3 mps 758 mmHg 90%
    09:00 +13°C° 0 mm 4 mps 758 mmHg 85%
    10:00 +14°C° 0 mm 5 mps 758 mmHg 80%
    11:00 +16°C° 0 mm 7 mps 757 mmHg 75%
    12:00 +16°C° 0 mm 7 mps 757 mmHg 73%
    13:00 +17°C° 0 mm 7 mps 757 mmHg 71%
    14:00 +17°C° 0 mm 8 mps 756 mmHg 69%
    15:00 +16°C° 0 mm 7 mps 756 mmHg 72%
    16:00 +16°C° 0 mm 7 mps 756 mmHg 75%
    17:00 +15°C° 0 mm 6 mps 756 mmHg 78%
    18:00 +15°C° 0 mm 6 mps 756 mmHg 78%
    19:00 +15°C° 0 mm 6 mps 756 mmHg 79%
    20:00 +15°C° 0 mm 7 mps 755 mmHg 80%
    21:00 +14°C° 0 mm 6 mps 755 mmHg 80%
    22:00 +14°C° 0 mm 6 mps 755 mmHg 80%
    23:00 +14°C° 0 mm 6 mps 755 mmHg 79%
    Show more